Miscellaneous Local Product
Issued by NWS Hastings, NE

Home | Current Version | Previous Version | Graphics & Text | Print | Product List | Glossary On
Versions: 1 2 3 4 5 6 7 8 9 10 11 12 13 14 15 16 17 18 19 20 21 22 23 24 25 26 27 28 29 30 31 32 33 34 35 36 37 38 39 40 41 42 43 44 45 46 47 48 49 50
000
AXUS43 KGID 230902
MISGRI

GID CWA HOURLY WEATHER ROUNDUP
NATIONAL WEATHER SERVICE HASTINGS NE
400 AM CDT WED JUL 23 2014

NOTE: "FAIR" INDICATES FEW OR NO CLOUDS BELOW 12,000 FEET WITH NO
SIGNIFICANT WEATHER AND/OR OBSTRUCTIONS TO VISIBILITY.

...SOUTH CENTRAL NEBRASKA...

CITY           SKY/WX    TMP DP  RH WIND       PRES   REMARKS
GRAND ISLAND   PTCLDY    67  63  87 NE7       30.22F
HASTINGS       MOCLDY    69  64  84 E3        30.23S
KEARNEY        PTCLDY    66  63  88 E7        30.23S
ORD            MOCLDY    64  62  93 CALM      30.23F
YORK           PTCLDY    66  64  94 NE8       30.21F
AURORA         PTCLDY    67  66  96 E6        30.21F
LEXINGTON      CLOUDY    69  66  93 SE3       30.26R
HOLDREGE       CLOUDY    72  66  82 E9        30.26F THUNDER
HEBRON         CLEAR     72  67  84 NE7       30.19F

...NEBRASKA PANHANDLE...

CITY           SKY/WX    TMP DP  RH WIND       PRES   REMARKS
CHADRON        PTCLDY    67  63  87 N14       30.33R
ALLIANCE       CLEAR     64  60  87 SE8       30.30F
SCOTTSBLUFF    CLEAR     69  64  84 SE13      30.29F
SIDNEY         PTCLDY    67  63  87 SE15G22   30.32F

...WESTERN AND NORTH CENTRAL NEBRASKA...

CITY           SKY/WX    TMP DP  RH WIND       PRES   REMARKS
VALENTINE      CLOUDY    70  60  70 SE12      30.23F
AINSWORTH      CLOUDY    65  60  82 S3        30.26S
ONEILL         MOCLDY    64  58  81 CALM      30.25F
BROKEN BOW     MOCLDY    67  64  90 E9        30.22F
IMPERIAL       CLOUDY    70  65  84 E16       30.29R
NORTH PLATTE   MOCLDY    68  64  87 SE7       30.27F
MCCOOK         CLOUDY    71  67  87 NE10      30.26R

...EASTERN NEBRASKA...

CITY           SKY/WX    TMP DP  RH WIND       PRES   REMARKS
NORFOLK        CLEAR     65  57  75 NE5       30.22F
SO SIOUX CITY  PTCLDY    66  58  75 NE7       30.21S
TEKAMAH        CLEAR     64  59  83 N12       30.20F
COLUMBUS       CLEAR     63  55  77 NE3       30.21F
ALBION         PTCLDY    63  59  88 CALM      30.22F
OMAHA EPPLEY   CLEAR     66  59  78 NW7       30.18F
OFFUTT AFB     CLEAR     68  61  78 NE3       30.17F
MILLARD        CLEAR     71  59  66 CALM      30.18F
LINCOLN        CLEAR     69  62  78 NE8       30.18F
NEBRASKA CITY  CLEAR     67  62  81 N7        30.18S
BEATRICE       CLEAR     65  64  97 N5        30.18S
FALLS CITY     CLEAR     69  66  90 N5        30.14S

...NORTHERN KANSAS...

CITY           SKY/WX    TMP DP  RH WIND       PRES   REMARKS
GOODLAND       CLEAR     68  66  93 E6        30.24F
HILL CITY      CLEAR     73  68  84 E7        30.21S
NORTON         PTSUNNY   73  64  73 NE15G23   30.24
PHILLIPSBURG   CLOUDY    73  66  78 NE9       30.22R
SMITH CENTER   CLEAR     72  64  78 NE10      30.20R
HAYS           MOCLDY    66  64  94 NE9       30.18R
RUSSELL        CLEAR     75  69  81 NE8       30.15F
CONCORDIA      CLEAR     73  69  87 NE6       30.16F
SALINA         PTCLDY    81  71  71 NE8       30.13F
TOPEKA         PTCLDY    78  71  79 N7        30.11S



USA.gov is the U.S. government's official web portal to all federal, state and local government web resources and services.